STARLINK-3342 (50816 NORAD) Tracking and Keplerian Element Data

This shows tracking and keplerian element data for the satellite.

Feedback or suggestion? Click here.




ElementValue
Catalog50816
NameSTARLINK-3342
Epoch Orbit2202
Epoch Day140.91667824
Epoch Year2022
RAAN283.5643
Inclination53.2168
Eccentricity0.0002061
Argument of Perigee40.1918
Mean Anonmoly57.904
Mean Motion15.0879202
Decay Rate0.00021514
L11 50816U 22001P 22140.91667824 .00021514 00000+0 13675-2 0 9993
L22 50816 53.2168 283.5643 0002061 40.1918 57.9040 15.08792020 22025

Live tracking and technical data element details for STARLINK-3342 (NORAD 50816). STARLINK-3342 can be tracked NOW for your location showing map with azimuth and elevation plus other details from your city location.

Track the satellite on the map from your city or location and see movement details for azimuth, elevation, latitude, longitude, range, height, and movement on the map or in text.







IsCatalogInMostPopularTable: catalog: 50816, numindb: 20
Update: records affected: 1



GetName: 50816 STARLINK-3342

Hit Count: updated at: Mon, 23 May 2022 20:16:14 GMT